WetterOnline ( http://www.wetteronline.de )

Wetter aktuell Altusried

Aktuelles Wetter: Kempten (705m)

6-stündlich | Neueste Meldungen
Ortszeit Temperatur Wetter
Fr, 28.07. 8:00 14.6° C Sprühregen
Fr, 28.07. 2:00 15.1° C leichter Regen
Do, 27.07. 20:00 18.3° C wolkig
Do, 27.07. 14:00 14.6° C bewölkt
Ortszeit Temperatur Wetter
Fr, 28.07. 8:30 14.6° C leichter Regen
Fr, 28.07. 8:00 14.6° C Sprühregen
Fr, 28.07. 7:30 14.5° C bedeckt
Fr, 28.07. 7:00 14.4° C bedeckt
Fr, 28.07. 6:30 14.1° C bedeckt
Fr, 28.07. 6:00 14.1° C bedeckt
Ortszeit Relative Feuchte Sichtweite
Fr, 28.07. 8:00 94% 17 km
Fr, 28.07. 2:00 96% 21 km
Do, 27.07. 20:00 75% 55 km
Do, 27.07. 14:00 88% 26 km
Ortszeit Relative Feuchte Sichtweite
Fr, 28.07. 8:30 96% 4.1 km
Fr, 28.07. 8:00 94% 17 km
Fr, 28.07. 7:30 97% 22 km
Fr, 28.07. 7:00 97% 40 km
Fr, 28.07. 6:30 98% 29 km
Fr, 28.07. 6:00 97% 14 km
Ortszeit Niederschlagsmenge Niederschlagsart
Fr, 28.07. 8:00 4 l/m2 in 12 Std. Regen
Fr, 28.07. 2:00 0.2 l/m2 in 6 Std. Regen
Do, 27.07. 20:00 0.1 l/m2 in 12 Std. -
Do, 27.07. 14:00 0.1 l/m2 in 6 Std. Regen
Ortszeit Niederschlagsmenge Niederschlagsart
Fr, 28.07. 8:30 keine Meldung -
Fr, 28.07. 8:00 0.1 l/m2 in 1 Std. Regen
Fr, 28.07. 7:30 keine Meldung -
Fr, 28.07. 7:00 0.0 l/m2 in 1 Std. -
Fr, 28.07. 6:30 keine Meldung -
Fr, 28.07. 6:00 0.0 l/m2 in 1 Std. -
Ortszeit Stärke Spitze Richtung
km/h Bft. km/h Grad Sektor
Fr, 28.07. 8:00 0 0 50 - -
Fr, 28.07. 2:00 4 1 11 130° SO
Do, 27.07. 20:00 0 0 36 - -
Do, 27.07. 14:00 9 2 33 200° S
Ortszeit Stärke Spitze Richtung
km/h Bft. km/h Grad Sektor
Fr, 28.07. 8:30 4 1 11 190° S
Fr, 28.07. 8:00 0 0 7 - -
Fr, 28.07. 7:30 4 1 7 100° O
Fr, 28.07. 7:00 4 1 7 200° S
Fr, 28.07. 6:30 6 1 7 170° S
Fr, 28.07. 6:00 6 1 11 190° S
Ortszeit Untergrenze Bedeckung Gattung
total tief tief mittel hoch
Fr, 28.07. 8:00 1110 m 8/8 8/8 - - -
Fr, 28.07. 2:00 1350 m 7/8 7/8 - - -
Do, 27.07. 20:00 1350 m 7/8 1/8 - - -
Do, 27.07. 14:00 450 m 7/8 7/8 - - -
Ortszeit Bedeckungsgrad in Achtel und Wolkenuntergrenze
Fr, 28.07. 8:30 2(480m) 7(810m) 7(1050m)
Fr, 28.07. 8:00 2(1110m) 7(1320m) 8(1500m)
Fr, 28.07. 7:30 2(1020m) 7(1500m) 8(2700m)
Fr, 28.07. 7:00 5(1170m) 8(2100m) 8(3000m)
Fr, 28.07. 6:30 3(1230m) 7(1800m) 8(2400m)
Fr, 28.07. 6:00 8(1500m)
Ortszeit Luftdruck NN (hPa) Tendenz (hPa in 3 Std.)
Fr, 28.07. 8:00 1014 + 0,2
Fr, 28.07. 2:00 1011 - 0,3
Do, 27.07. 20:00 1010 - 0,3
Do, 27.07. 14:00 1013 0,0
Ortszeit Luftdruck NN (hPa) Tendenz (hPa in 3 Std.)
Fr, 28.07. 8:30 1014 + 0,9
Fr, 28.07. 8:00 1014 + 0,2
Fr, 28.07. 7:30 1013 - 0,4
Fr, 28.07. 7:00 1013 - 0,4
Fr, 28.07. 6:30 1013 - 0,5
Fr, 28.07. 6:00 1013 + 0,6
Ortszeit Schneehöhe (cm)
Fr, 28.07. 8:00 -
Fr, 28.07. 2:00 -
Do, 27.07. 20:00 -
Do, 27.07. 14:00 -
Ortszeit Schneehöhe (cm)
Fr, 28.07. 8:30 -
Fr, 28.07. 8:00 -
Fr, 28.07. 7:30 -
Fr, 28.07. 7:00 -
Fr, 28.07. 6:30 -
Fr, 28.07. 6:00 -
Link zu dieser Seite / Seite empfehlen

Das Wetter in ...